This is the latest recevied weather packets stored in our database for station/object OK1KKY-18. If no packets are shown the sender has not sent any weather packets the latest 10 day(s).
| Time | Temp. | Humidity | Pressure | Rain* | Wind** | Luminosity | Snow |
|---|---|---|---|---|---|---|---|
| 1777809954 | 21.67° C | 28% | 1017.3 hPa | - | - | - | - |
| 1777809354 | 21.67° C | 26% | 1017.3 hPa | - | - | - | - |
| 1777808754 | 22.22° C | 26% | 1017.5 hPa | - | - | - | - |
| 1777808154 | 21.67° C | 26% | 1017.5 hPa | - | - | - | - |
| 1777807554 | 22.22° C | 28% | 1017.6 hPa | - | - | - | - |
| 1777806954 | 21.67° C | 28% | 1017.9 hPa | - | - | - | - |
| 1777806354 | 21.11° C | 26% | 1017.8 hPa | - | - | - | - |
| 1777805754 | 21.11° C | 29% | 1017.9 hPa | - | - | - | - |
| 1777805154 | 20.56° C | 29% | 1018 hPa | - | - | - | - |
| 1777804554 | 20.56° C | 30% | 1018.1 hPa | - | - | - | - |
| 1777803954 | 20.56° C | 30% | 1018.2 hPa | - | - | - | - |
| 1777803354 | 21.11° C | 30% | 1018.2 hPa | - | - | - | - |
| 1777802754 | 20° C | 30% | 1018.2 hPa | - | - | - | - |
| 1777802154 | 20.56° C | 30% | 1018.3 hPa | - | - | - | - |
| 1777801554 | 20° C | 33% | 1018.4 hPa | - | - | - | - |
| 1777800954 | 20° C | 33% | 1018.6 hPa | - | - | - | - |
| 1777800354 | 19.44° C | 33% | 1018.8 hPa | - | - | - | - |
| 1777799754 | 19.44° C | 33% | 1018.8 hPa | - | - | - | - |
| 1777799154 | 19.44° C | 31% | 1018.8 hPa | - | - | - | - |
| 1777798554 | 18.89° C | 32% | 1018.9 hPa | - | - | - | - |
| 1777797954 | 18.89° C | 32% | 1019 hPa | - | - | - | - |
| 1777797355 | 18.89° C | 31% | 1019.1 hPa | - | - | - | - |
| 1777796754 | 18.89° C | 31% | 1019.1 hPa | - | - | - | - |
| 1777796154 | 18.33° C | 31% | 1019.1 hPa | - | - | - | - |
| 1777795554 | 18.33° C | 33% | 1019.2 hPa | - | - | - | - |
* Rain since midnight (hover to see other rain measurements)
** Current wind speed in m/s (hover to see current wind gust speed)